GALAXY 35 (G-35)

Last updated on Sun Jun 21 2026 00:03:09 GMT+0000 (Coordinated Universal Time)

1 54741U 22170A 26171.37352373 -.00000167 00000+0 00000+0 0 9996 2 54741 0.0184 78.3754 0001886 7.7151 223.8506 1.00271920 12926
UTC large
Height (km)
Speed (km/s)
/
Latitude / Longitude
Inclination (degrees)
Orbital Period (minutes)
Azimuth
Elevation
Range (km)
Doppler Factor

Next 0 passes for location: London (51.5072 / 0.1276)

No passes found over London.
GALAXY 35 (G-35)